Change the Weather History Date:

Thursday, October 4, 2012

  Actual Average (KLSF) Record (KLSF)
Temperature  
Mean Temperature 72 °F -  
Max Temperature 84 °F 78 °F 89 °F (1998)
Min Temperature 59 °F 56 °F 41 °F (2010)
Cooling Degree Days 6    
Growing Degree Days 22 (Base 50)    
Moisture  
Dew Point 61 °F    
Average Humidity 85    
Maximum Humidity 100    
Minimum Humidity 44    
Precipitation  
Precipitation 0.01 in - - ()
Sea Level Pressure  
Sea Level Pressure 30.20 in    
Wind  
Wind Speed 1 mph (NE)    
Max Wind Speed 6 mph    
Max Gust Speed -    
Visibility 6 miles    
Events Fog , Rain    
Averages and records for this station are not official NWS values.
T = Trace of Precipitation, MM = Missing Value Source: NWS Daily Summary

Daily Weather History Graph

Daily Weather History Graph

Search for Another Location

Airport or City:

Trip Planner

Search our weather history database for the weather conditions in past years. The results will help you decide how hot, cold, wet, or windy it might be!

Date:

Astronomy

Oct. 04, 2012 Rise Set
Actual Time 6:36 AM CDT 6:20 PM CDT
Civil Twilight 6:12 AM CDT 6:45 PM CDT
Nautical Twilight 5:43 AM CDT 7:13 PM CDT
Astronomical Twilight 5:15 AM CDT 7:41 PM CDT
Moon 9:12 PM CDT (10/4) 10:37 AM CDT (10/4)
Length of Visible Light 12h 33m
Length of Day
11h 44m
Waning Gibbous, 82% of the Moon is Illuminated
Oct 4
Waning Gibbous
Oct 8
Last Quarter
Oct 15
New
Oct 21
First Quarter
Oct 29
Full

Hourly Weather History & Observations

Time (CDT) Temp. Heat Index Dew Point Humidity Pressure Visibility Wind Dir Wind Speed Gust Speed Precip Events Conditions
12:58 AM 61.0 °F - 59.0 °F 93% 30.17 in 6.0 mi Calm Calm - N/A   Clear
1:58 AM 61.0 °F - 59.0 °F 93% 30.17 in 6.0 mi Calm Calm - N/A   Partly Cloudy
2:58 AM 61.0 °F - 60.1 °F 97% 30.18 in 6.0 mi Calm Calm - 0.01 in   Clear
3:58 AM 62.1 °F - 60.1 °F 93% 30.18 in 5.0 mi Calm Calm - 0.00 in Rain Light Rain
4:16 AM 62.6 °F - 60.8 °F 94% 30.20 in 6.0 mi Calm Calm - 0.00 in Rain Light Rain
4:40 AM 60.8 °F - 59.0 °F 94% 30.21 in 4.0 mi Calm Calm - 0.00 in   Scattered Clouds
4:58 AM 60.1 °F - 57.9 °F 93% 30.21 in 4.0 mi Calm Calm - 0.00 in   Clear
5:17 AM 60.8 °F - 59.0 °F 94% 30.21 in 1.8 mi Calm Calm - N/A   Clear
5:27 AM 60.8 °F - 57.2 °F 88% 30.21 in 3.0 mi Calm Calm - N/A   Clear
5:46 AM 60.8 °F - 57.2 °F 88% 30.22 in 5.0 mi Calm Calm - N/A   Partly Cloudy
5:58 AM 59.0 °F - 57.9 °F 96% 30.22 in 5.0 mi Calm Calm - N/A   Scattered Clouds
6:08 AM 59.0 °F - 57.2 °F 94% 30.23 in 5.0 mi Calm Calm - N/A   Mostly Cloudy
6:31 AM 60.8 °F - 57.2 °F 88% 30.23 in 1.8 mi Calm Calm - N/A   Overcast
6:44 AM 60.8 °F - 59.0 °F 94% 30.23 in 0.5 mi Calm Calm - N/A Fog Fog
6:58 AM 61.0 °F - 60.1 °F 97% 30.22 in 0.2 mi Calm Calm - N/A Fog Fog
7:58 AM 62.1 °F - 62.1 °F 100% 30.25 in 0.2 mi Calm Calm - N/A Fog Fog
8:58 AM 64.0 °F - 63.0 °F 96% 30.25 in 0.5 mi Calm Calm - 0.00 in Fog Fog
9:08 AM 64.4 °F - 64.4 °F 100% 30.26 in 1.5 mi Calm Calm - N/A   Overcast
9:12 AM 66.2 °F - 64.4 °F 94% 30.26 in 3.0 mi Calm Calm - N/A   Overcast
9:29 AM 66.2 °F - 64.4 °F 94% 30.27 in 10.0 mi NE 3.5 mph - N/A   Scattered Clouds
9:58 AM 72.0 °F - 64.9 °F 78% 30.26 in 10.0 mi ENE 4.6 mph - N/A   Clear
10:58 AM 77.0 °F - 64.9 °F 66% 30.24 in 10.0 mi North 5.8 mph - N/A   Clear
11:58 AM 80.1 °F 81.5 °F 63.0 °F 56% 30.23 in 10.0 mi Variable 5.8 mph - N/A   Clear
12:58 PM 82.9 °F 84.0 °F 63.0 °F 51% 30.21 in 10.0 mi East 4.6 mph - N/A   Clear
1:58 PM 84.0 °F 84.9 °F 63.0 °F 49% 30.18 in 10.0 mi Calm Calm - N/A   Clear
2:58 PM 82.9 °F 82.8 °F 59.0 °F 44% 30.17 in 10.0 mi ENE 3.5 mph - N/A   Clear
3:58 PM 84.0 °F 84.5 °F 62.1 °F 47% 30.16 in 10.0 mi Variable 3.5 mph - N/A   Clear
4:58 PM 80.1 °F 81.7 °F 64.0 °F 58% 30.15 in 10.0 mi Calm Calm - N/A   Clear
5:58 PM 75.9 °F - 68.0 °F 76% 30.15 in 10.0 mi Calm Calm - N/A   Clear
6:58 PM 70.0 °F - 66.9 °F 90% 30.16 in 10.0 mi Calm Calm - N/A   Clear
7:58 PM 66.0 °F - 64.0 °F 93% 30.17 in 10.0 mi Calm Calm - N/A   Clear
8:58 PM 64.0 °F - 62.1 °F 93% 30.18 in 10.0 mi Calm Calm - N/A   Clear
9:58 PM 63.0 °F - 61.0 °F 93% 30.19 in 9.0 mi Calm Calm - N/A   Clear
10:58 PM 63.0 °F - 61.0 °F 93% 30.19 in 8.0 mi Calm Calm - N/A   Clear
11:53 PM 62.6 °F - 60.8 °F 94% 30.18 in 7.0 mi Calm Calm - N/A   Partly Cloudy
11:58 PM 62.1 °F - 61.0 °F 96% 30.17 in 7.0 mi Calm Calm - N/A   Scattered Clouds